Hourly Weather Runskiy

Today, 19 April, Monday

Time Temperature Precipitation Wind Pressure Humidity
00:00 +4°C° 0 mm 3 mps 746 mmHg 74%
01:00 +4°C° 0 mm 3 mps 746 mmHg 77%
02:00 +4°C° 0 mm 2 mps 746 mmHg 80%
03:00 +4°C° 0 mm 2 mps 746 mmHg 84%
04:00 +4°C° 0 mm 2 mps 746 mmHg 87%
05:00 +3°C° 0 mm 2 mps 746 mmHg 91%
06:00 +4°C° 0 mm 3 mps 746 mmHg 84%
07:00 +5°C° 0 mm 3 mps 746 mmHg 77%
08:00 +7°C° 0 mm 3 mps 746 mmHg 69%
09:00 +9°C° 0 mm 3 mps 746 mmHg 64%
10:00 +10°C° 0 mm 3 mps 746 mmHg 58%
11:00 +11°C° 0 mm 3 mps 746 mmHg 52%
12:00 +11°C° 0 mm 3 mps 746 mmHg 53%
13:00 +11°C° 0 mm 4 mps 746 mmHg 54%
14:00 +11°C° 0 mm 4 mps 746 mmHg 56%
15:00 +10°C° 0 mm 4 mps 745 mmHg 58%
16:00 +8°C° 0 mm 4 mps 745 mmHg 60%
17:00 +8°C° 0 mm 4 mps 745 mmHg 62%
18:00 +8°C° 0 mm 3 mps 745 mmHg 61%
19:00 +8°C° 0 mm 3 mps 745 mmHg 60%
20:00 +7°C° 0 mm 3 mps 745 mmHg 59%
21:00 +7°C° 0 mm 3 mps 745 mmHg 60%
22:00 +7°C° 0 mm 3 mps 745 mmHg 61%
23:00 +5°C° 0 mm 3 mps 745 mmHg 63%

Tomorrow, 20 April, Tuesday

Time Temperature Precipitation Wind Pressure Humidity
00:00 +5°C° 0 mm 3 mps 745 mmHg 66%
01:00 +4°C° 0 mm 3 mps 744 mmHg 70%
02:00 +4°C° 0 mm 3 mps 744 mmHg 73%
03:00 +3°C° 0 mm 3 mps 744 mmHg 72%
04:00 +3°C° 0 mm 3 mps 744 mmHg 71%
05:00 +2°C° 0 mm 3 mps 743 mmHg 70%
06:00 +2°C° 0 mm 3 mps 743 mmHg 68%
07:00 +1°C° 0 mm 4 mps 743 mmHg 65%
08:00 +1°C° 0 mm 4 mps 743 mmHg 63%
09:00 +3°C° 0 mm 4 mps 743 mmHg 62%
10:00 +4°C° 0 mm 4 mps 742 mmHg 61%
11:00 +5°C° 0 mm 4 mps 742 mmHg 60%
12:00 +5°C° 0 mm 4 mps 742 mmHg 60%
13:00 +6°C° 0 mm 4 mps 741 mmHg 61%
14:00 +6°C° 0 mm 4 mps 741 mmHg 61%
15:00 +6°C° 0 mm 4 mps 740 mmHg 62%
16:00 +6°C° 0 mm 4 mps 740 mmHg 64%
17:00 +7°C° 0 mm 3 mps 739 mmHg 66%
18:00 +5°C° 0 mm 3 mps 739 mmHg 70%
19:00 +4°C° 0 mm 3 mps 739 mmHg 74%
20:00 +3°C° 0 mm 3 mps 739 mmHg 78%
21:00 +2°C° 0 mm 3 mps 738 mmHg 80%
22:00 +3°C° 0 mm 2 mps 738 mmHg 83%
23:00 +3°C° 0 mm 2 mps 737 mmHg 86%

Day after tomorrow, 21 April, Wednesday

Time Temperature Precipitation Wind Pressure Humidity
00:00 +2°C° 0.1 mm 2 mps 736 mmHg 89%
01:00 +2°C° 0.1 mm 2 mps 735 mmHg 92%
02:00 +2°C° 0.1 mm 2 mps 735 mmHg 95%
03:00 +2°C° 0.4 mm 2 mps 734 mmHg 95%
04:00 +2°C° 0.4 mm 2 mps 733 mmHg 96%
05:00 +2°C° 0.4 mm 2 mps 732 mmHg 97%
06:00 +2°C° 0.7 mm 2 mps 732 mmHg 97%
07:00 +2°C° 0.7 mm 2 mps 731 mmHg 98%
08:00 +1°C° 0.7 mm 2 mps 731 mmHg 98%
09:00 +2°C° 1 mm 1 mps 730 mmHg 98%
10:00 +2°C° 1 mm 1 mps 730 mmHg 98%
11:00 +2°C° 1 mm 1 mps 729 mmHg 98%
12:00 +2°C° 0.5 mm 1 mps 729 mmHg 98%
13:00 +2°C° 0.5 mm 2 mps 729 mmHg 98%
14:00 +2°C° 0.5 mm 2 mps 729 mmHg 98%
15:00 +2°C° 0.3 mm 2 mps 730 mmHg 98%
16:00 +2°C° 0.3 mm 2 mps 730 mmHg 98%
17:00 +2°C° 0.3 mm 2 mps 730 mmHg 97%
18:00 +2°C° 0.1 mm 2 mps 730 mmHg 97%
19:00 +2°C° 0.1 mm 2 mps 730 mmHg 97%
20:00 +3°C° 0.1 mm 2 mps 730 mmHg 97%
21:00 +2°C° 0.2 mm 3 mps 730 mmHg 97%
22:00 +2°C° 0.2 mm 3 mps 731 mmHg 97%
23:00 +2°C° 0.2 mm 3 mps 731 mmHg 96%

22 April, Thursday

Time Temperature Precipitation Wind Pressure Humidity
00:00 +2°C° 0.4 mm 3 mps 731 mmHg 95%
01:00 +2°C° 0.4 mm 3 mps 731 mmHg 94%
02:00 +2°C° 0.4 mm 3 mps 731 mmHg 93%
03:00 +2°C° 0.2 mm 3 mps 732 mmHg 93%
04:00 +2°C° 0.2 mm 3 mps 732 mmHg 92%
05:00 +3°C° 0.2 mm 2 mps 732 mmHg 91%
06:00 +4°C° 0 mm 2 mps 733 mmHg 89%
07:00 +4°C° 0 mm 3 mps 733 mmHg 86%
08:00 +5°C° 0 mm 3 mps 733 mmHg 83%
09:00 +7°C° 0 mm 3 mps 734 mmHg 78%
10:00 +8°C° 0 mm 3 mps 734 mmHg 74%
11:00 +10°C° 0 mm 3 mps 735 mmHg 69%
12:00 +11°C° 0.2 mm 3 mps 735 mmHg 64%
13:00 +11°C° 0.2 mm 3 mps 735 mmHg 60%
14:00 +12°C° 0.2 mm 3 mps 735 mmHg 55%
15:00 +13°C° 0.1 mm 2 mps 735 mmHg 58%
16:00 +13°C° 0.1 mm 2 mps 735 mmHg 61%
17:00 +13°C° 0.1 mm 1 mps 736 mmHg 64%
18:00 +11°C° 0 mm 1 mps 736 mmHg 71%
19:00 +8°C° 0 mm 2 mps 736 mmHg 78%
20:00 +7°C° 0 mm 2 mps 736 mmHg 84%
21:00 +6°C° 0 mm 2 mps 736 mmHg 88%
22:00 +6°C° 0 mm 2 mps 736 mmHg 91%
23:00 +5°C° 0 mm 2 mps 736 mmHg 94%

23 April, Friday

Time Temperature Precipitation Wind Pressure Humidity
00:00 +5°C° 0 mm 2 mps 736 mmHg 95%
01:00 +5°C° 0 mm 2 mps 736 mmHg 96%
02:00 +4°C° 0 mm 2 mps 736 mmHg 96%
03:00 +4°C° 0 mm 2 mps 735 mmHg 95%
04:00 +4°C° 0 mm 3 mps 735 mmHg 93%
05:00 +4°C° 0 mm 4 mps 734 mmHg 92%
06:00 +5°C° 0 mm 4 mps 734 mmHg 88%
07:00 +6°C° 0 mm 5 mps 734 mmHg 85%
08:00 +8°C° 0 mm 6 mps 733 mmHg 81%
09:00 +6°C° 0.1 mm 5 mps 734 mmHg 85%
10:00 +5°C° 0.1 mm 4 mps 734 mmHg 89%
11:00 +3°C° 0.1 mm 3 mps 734 mmHg 94%
12:00 +3°C° 0.5 mm 3 mps 735 mmHg 94%
13:00 +3°C° 0.5 mm 2 mps 735 mmHg 95%
14:00 +3°C° 0.5 mm 2 mps 735 mmHg 96%
15:00 +3°C° 0.9 mm 2 mps 735 mmHg 95%
16:00 +4°C° 0.9 mm 1 mps 735 mmHg 94%
17:00 +4°C° 0.9 mm 1 mps 735 mmHg 93%
18:00 +4°C° 0 mm 1 mps 735 mmHg 94%
19:00 +4°C° 0 mm 1 mps 735 mmHg 94%
20:00 +2°C° 0 mm 2 mps 735 mmHg 94%
21:00 +2°C° 0 mm 2 mps 735 mmHg 94%
22:00 +1°C° 0 mm 3 mps 735 mmHg 94%
23:00 +1°C° 0 mm 3 mps 735 mmHg 94%

24 April, Saturday

Time Temperature Precipitation Wind Pressure Humidity
00:00 +1°C° 0 mm 3 mps 734 mmHg 92%
01:00 +1°C° 0 mm 3 mps 734 mmHg 90%
02:00 +1°C° 0 mm 4 mps 734 mmHg 88%
03:00 +1°C° 0 mm 3 mps 734 mmHg 88%
04:00 +1°C° 0 mm 3 mps 734 mmHg 87%
05:00 +2°C° 0 mm 2 mps 734 mmHg 87%
06:00 +2°C° 0 mm 3 mps 734 mmHg 85%
07:00 +2°C° 0 mm 3 mps 734 mmHg 84%
08:00 +3°C° 0 mm 3 mps 734 mmHg 82%
09:00 +2°C° 0.1 mm 3 mps 734 mmHg 85%
10:00 +2°C° 0.1 mm 3 mps 734 mmHg 88%
11:00 +2°C° 0.1 mm 3 mps 734 mmHg 90%
12:00 +3°C° 0.1 mm 4 mps 734 mmHg 80%
13:00 +3°C° 0.1 mm 4 mps 734 mmHg 70%
14:00 +4°C° 0.1 mm 4 mps 735 mmHg 59%
15:00 +4°C° 0.1 mm 4 mps 735 mmHg 62%
16:00 +3°C° 0.1 mm 4 mps 735 mmHg 65%
17:00 +3°C° 0.1 mm 4 mps 735 mmHg 68%
18:00 +1°C° 0 mm 4 mps 735 mmHg 73%
19:00 0°C° 0 mm 4 mps 735 mmHg 79%
20:00 0°C° 0 mm 3 mps 736 mmHg 85%
21:00 -1°C° 0 mm 3 mps 736 mmHg 87%
22:00 -1°C° 0 mm 3 mps 736 mmHg 90%
23:00 -2°C° 0 mm 2 mps 736 mmHg 92%
Show more